When you browse on this site, cookies collect data to enhance your experience and personalize the content and advertising you see.
Visit our Privacy Policy to learn more. By continuing to use the site, you agree to this use of cookies and data.
  • In Austria
  • List of Countries
  • For 7 days
  • Water Temperature
  • Weather Map
  • News
  • Weather Widgets
  • user-avatar
    Login

    Hourly Weather Baden-Baden

    Today, 2 June, Tuesday

    Time Temperature Precipitation Wind Pressure Humidity
    00:00 +14°C° 0 mm 1 mps 732 mmHg 83%
    01:00 +14°C° 0 mm 1 mps 732 mmHg 85%
    02:00 +13°C° 0 mm 1 mps 732 mmHg 86%
    03:00 +13°C° 0 mm 1 mps 731 mmHg 87%
    04:00 +13°C° 0 mm 1 mps 731 mmHg 88%
    05:00 +14°C° 0 mm 1 mps 732 mmHg 84%
    06:00 +15°C° 0 mm 1 mps 732 mmHg 79%
    07:00 +18°C° 0 mm 1 mps 732 mmHg 75%
    08:00 +20°C° 0 mm 1 mps 732 mmHg 68%
    09:00 +20°C° 0 mm 2 mps 732 mmHg 61%
    10:00 +23°C° 0 mm 2 mps 732 mmHg 54%
    11:00 +24°C° 0 mm 2 mps 732 mmHg 51%
    12:00 +25°C° 0 mm 3 mps 731 mmHg 48%
    13:00 +26°C° 0 mm 3 mps 731 mmHg 44%
    14:00 +26°C° 0 mm 3 mps 731 mmHg 45%
    15:00 +26°C° 0 mm 3 mps 730 mmHg 46%
    16:00 +26°C° 0 mm 3 mps 729 mmHg 46%
    17:00 +24°C° 0 mm 3 mps 729 mmHg 53%
    18:00 +23°C° 0 mm 2 mps 729 mmHg 60%
    19:00 +21°C° 0 mm 2 mps 728 mmHg 67%
    20:00 +19°C° 0 mm 2 mps 728 mmHg 69%
    21:00 +18°C° 0 mm 2 mps 728 mmHg 72%
    22:00 +16°C° 0 mm 1 mps 728 mmHg 75%
    23:00 +16°C° 0 mm 1 mps 727 mmHg 75%

    Tomorrow, 3 June, Wednesday

    Time Temperature Precipitation Wind Pressure Humidity
    00:00 +15°C° 0 mm 1 mps 727 mmHg 75%
    01:00 +15°C° 0 mm 1 mps 726 mmHg 75%
    02:00 +14°C° 0 mm 1 mps 726 mmHg 75%
    03:00 +14°C° 0 mm 1 mps 725 mmHg 76%
    04:00 +14°C° 0 mm 1 mps 725 mmHg 76%
    05:00 +15°C° 0 mm 1 mps 725 mmHg 73%
    06:00 +16°C° 0 mm 1 mps 725 mmHg 70%
    07:00 +18°C° 0 mm 1 mps 724 mmHg 68%
    08:00 +20°C° 0 mm 1 mps 724 mmHg 64%
    09:00 +22°C° 0 mm 1 mps 724 mmHg 60%
    10:00 +23°C° 0 mm 1 mps 724 mmHg 56%
    11:00 +24°C° 0.2 mm 1 mps 723 mmHg 55%
    12:00 +25°C° 0.2 mm 1 mps 723 mmHg 53%
    13:00 +25°C° 0.2 mm 1 mps 722 mmHg 52%
    14:00 +25°C° 0.2 mm 1 mps 722 mmHg 51%
    15:00 +26°C° 0.2 mm 1 mps 721 mmHg 50%
    16:00 +26°C° 0.2 mm 1 mps 721 mmHg 49%
    17:00 +24°C° 0.2 mm 1 mps 720 mmHg 56%
    18:00 +23°C° 0.2 mm 1 mps 720 mmHg 64%
    19:00 +20°C° 0.2 mm 0 mps 719 mmHg 72%
    20:00 +20°C° 0.8 mm 1 mps 719 mmHg 77%
    21:00 +19°C° 0.8 mm 1 mps 719 mmHg 82%
    22:00 +16°C° 0.8 mm 2 mps 719 mmHg 86%
    23:00 +16°C° 0.8 mm 2 mps 719 mmHg 89%

    Day after tomorrow, 4 June, Thursday

    Time Temperature Precipitation Wind Pressure Humidity
    00:00 +16°C° 0.8 mm 2 mps 718 mmHg 92%
    01:00 +15°C° 0.8 mm 2 mps 718 mmHg 94%
    02:00 +15°C° 0.3 mm 2 mps 718 mmHg 95%
    03:00 +15°C° 0.3 mm 2 mps 718 mmHg 95%
    04:00 +15°C° 0.3 mm 2 mps 717 mmHg 95%
    05:00 +15°C° 0.1 mm 2 mps 717 mmHg 94%
    06:00 +15°C° 0.1 mm 2 mps 717 mmHg 93%
    07:00 +16°C° 0.1 mm 2 mps 717 mmHg 91%
    08:00 +17°C° 0.5 mm 2 mps 717 mmHg 87%
    09:00 +18°C° 0.5 mm 3 mps 716 mmHg 82%
    10:00 +19°C° 0.5 mm 3 mps 716 mmHg 77%
    11:00 +19°C° 0.5 mm 3 mps 716 mmHg 74%
    12:00 +19°C° 0.5 mm 4 mps 716 mmHg 71%
    13:00 +20°C° 0.5 mm 4 mps 716 mmHg 68%
    14:00 +19°C° 0.4 mm 4 mps 715 mmHg 70%
    15:00 +18°C° 0.4 mm 4 mps 715 mmHg 73%
    16:00 +17°C° 0.4 mm 5 mps 715 mmHg 75%
    17:00 +17°C° 0.6 mm 4 mps 716 mmHg 80%
    18:00 +14°C° 0.6 mm 4 mps 716 mmHg 84%
    19:00 +13°C° 0.6 mm 4 mps 716 mmHg 88%
    20:00 +12°C° 0.1 mm 4 mps 717 mmHg 90%
    21:00 +11°C° 0.1 mm 3 mps 717 mmHg 91%
    22:00 +10°C° 0.1 mm 3 mps 717 mmHg 93%
    23:00 +10°C° 0 mm 2 mps 718 mmHg 92%

    5 June, Friday

    Time Temperature Precipitation Wind Pressure Humidity
    00:00 +10°C° 0 mm 2 mps 718 mmHg 91%
    01:00 +9°C° 0 mm 2 mps 718 mmHg 90%
    02:00 +8°C° 0 mm 2 mps 718 mmHg 91%
    03:00 +8°C° 0 mm 2 mps 718 mmHg 91%
    04:00 +7°C° 0 mm 2 mps 718 mmHg 91%
    05:00 +8°C° 0 mm 2 mps 719 mmHg 88%
    06:00 +8°C° 0 mm 2 mps 719 mmHg 85%
    07:00 +9°C° 0 mm 2 mps 719 mmHg 82%
    08:00 +10°C° 0.1 mm 3 mps 720 mmHg 75%
    09:00 +12°C° 0.1 mm 3 mps 720 mmHg 67%
    10:00 +13°C° 0.1 mm 4 mps 720 mmHg 60%
    11:00 +13°C° 0.4 mm 4 mps 720 mmHg 61%
    12:00 +14°C° 0.4 mm 5 mps 720 mmHg 61%
    13:00 +15°C° 0.4 mm 5 mps 719 mmHg 62%
    14:00 +14°C° 0.5 mm 5 mps 719 mmHg 67%
    15:00 +14°C° 0.5 mm 5 mps 719 mmHg 72%
    16:00 +13°C° 0.5 mm 6 mps 720 mmHg 77%
    17:00 +12°C° 0.5 mm 5 mps 720 mmHg 81%
    18:00 +12°C° 0.5 mm 4 mps 720 mmHg 85%
    19:00 +11°C° 0.5 mm 4 mps 720 mmHg 89%
    20:00 +11°C° 0.4 mm 4 mps 721 mmHg 90%
    21:00 +10°C° 0.4 mm 4 mps 721 mmHg 91%
    22:00 +10°C° 0.4 mm 4 mps 721 mmHg 92%
    23:00 +10°C° 0.6 mm 4 mps 721 mmHg 93%

    6 June, Saturday

    Time Temperature Precipitation Wind Pressure Humidity
    00:00 +10°C° 0.6 mm 4 mps 721 mmHg 94%
    01:00 +10°C° 0.6 mm 4 mps 721 mmHg 96%
    02:00 +10°C° 0.7 mm 3 mps 721 mmHg 95%
    03:00 +10°C° 0.7 mm 3 mps 721 mmHg 95%
    04:00 +10°C° 0.7 mm 3 mps 721 mmHg 95%
    05:00 +10°C° 1.6 mm 3 mps 721 mmHg 96%
    06:00 +10°C° 1.6 mm 3 mps 721 mmHg 96%
    07:00 +10°C° 1.6 mm 3 mps 722 mmHg 96%
    08:00 +10°C° 0.6 mm 3 mps 722 mmHg 96%
    09:00 +11°C° 0.6 mm 4 mps 722 mmHg 95%
    10:00 +11°C° 0.6 mm 4 mps 722 mmHg 95%
    11:00 +12°C° 0.4 mm 5 mps 722 mmHg 92%
    12:00 +13°C° 0.4 mm 6 mps 722 mmHg 90%
    13:00 +13°C° 0.4 mm 6 mps 722 mmHg 88%
    14:00 +14°C° 0.4 mm 6 mps 722 mmHg 86%
    15:00 +14°C° 0.4 mm 6 mps 722 mmHg 85%
    16:00 +14°C° 0.4 mm 6 mps 722 mmHg 84%
    17:00 +14°C° 0.3 mm 5 mps 723 mmHg 86%
    18:00 +13°C° 0.3 mm 4 mps 723 mmHg 88%
    19:00 +13°C° 0.3 mm 3 mps 723 mmHg 90%
    20:00 +12°C° 0.1 mm 3 mps 723 mmHg 91%
    21:00 +13°C° 0.1 mm 2 mps 724 mmHg 91%
    22:00 +12°C° 0.1 mm 2 mps 724 mmHg 92%
    23:00 +12°C° 0.1 mm 1 mps 724 mmHg 92%

    7 June, Sunday

    Time Temperature Precipitation Wind Pressure Humidity
    00:00 +11°C° 0.1 mm 1 mps 724 mmHg 91%
    01:00 +11°C° 0.1 mm 1 mps 724 mmHg 91%
    02:00 +11°C° 0.2 mm 1 mps 724 mmHg 90%
    03:00 +10°C° 0.2 mm 0 mps 724 mmHg 89%
    04:00 +9°C° 0.2 mm 0 mps 724 mmHg 88%
    05:00 +11°C° 0 mm 1 mps 725 mmHg 85%
    06:00 +11°C° 0 mm 1 mps 725 mmHg 83%
    07:00 +11°C° 0 mm 1 mps 725 mmHg 81%
    08:00 +12°C° 0.1 mm 1 mps 726 mmHg 76%
    09:00 +13°C° 0.1 mm 1 mps 726 mmHg 71%
    10:00 +14°C° 0.1 mm 2 mps 726 mmHg 65%
    11:00 +15°C° 0 mm 2 mps 727 mmHg 61%
    12:00 +16°C° 0 mm 2 mps 727 mmHg 56%
    13:00 +16°C° 0 mm 3 mps 727 mmHg 51%
    14:00 +17°C° 0 mm 3 mps 727 mmHg 50%
    15:00 +17°C° 0 mm 3 mps 727 mmHg 49%
    16:00 +17°C° 0 mm 3 mps 727 mmHg 48%
    17:00 +16°C° 0 mm 3 mps 728 mmHg 53%
    18:00 +14°C° 0 mm 3 mps 728 mmHg 59%
    19:00 +14°C° 0 mm 2 mps 728 mmHg 64%
    20:00 +13°C° 0 mm 2 mps 728 mmHg 67%
    21:00 +11°C° 0 mm 1 mps 729 mmHg 71%
    22:00 +10°C° 0 mm 1 mps 729 mmHg 74%
    23:00 +9°C° 0 mm 1 mps 729 mmHg 77%
    Show more